Погода в Страшевичах

Россия / Тверская область     56°49′23″N   34°35′51″E
темп.,
°C
ветер,
м/с
пор.,
м/с
влажн.,
%
обл.,
%
осадки,
мм/ч
давл.,
гПа
погр.,
м
18 апреля, вс
вс1800:00+7св4136478 0.0 1023482
03:00+5св4137132 0.0 1023448
06:00+4св413800 0.0 1023441
09:00+8всв611631 0.0 1023888
12:00+11всв68455 0.0 10231492
15:00+13всв68395 0.0 10232006
18:00+12св584499 0.0 10221878
21:00+8св5135836 0.0 1024645
19 апреля, пн
пн1900:00+6всв4117296 0.0 1025561
03:00+5св498499 0.0 1026496
06:00+4св498888 0.0 1026488
09:00+5всв4785100 0.0 1026615
12:00+6св5775100 0.0 1026937
15:00+7всв4771100 0.1 10261048
18:00+7всв376587 0.0 10251197
21:00+5в487194 0.0 1026897
20 апреля, вт
вт2000:00+4всв3879100 0.0 1025582
03:00+3всв496975 0.0 1024505
06:00+1всв497154 0.0 1023575
09:00+3в586891 0.0 1023788
12:00+5в5868100 0.0 10211023
15:00+3в5892100 0.1 1020797
18:00+4в5981100 0.2 1018874
21:00+3всв4990100 0.2 1016819
21 апреля, ср
ср2100:00+2всв4996100 0.1 1012601
03:00+1св41298100 3.3 1008502
06:00+1св41098100 3.8 1004491
09:00+1св3797100 5.4 1002346
12:00+1с2299100 2.4 1001132
15:00+2з2599100 4.1 1001225
18:00+2зюз4892100 0.1 1003881
21:00+2юз4994100 0.3 10051004
22 апреля, чт
чт2200:00+2ююз4998100 0.1 1007745
03:00+2ююз51198100 0.8 1008767
06:00+2ююз41198100 1.6 1009738
09:00+5ююз51192100 1.8 1010756
12:00+8ююз4981100 0.1 1011954
15:00+11ююз58655 0.6 10111575
18:00+10ю497560 0.3 1012836
21:00+7ююв3129399 0.4 1013334